Tracking 20626 objects as of 8-Apr-2020
HD Live streaming from Space Station
objects crossing your sky now

METEOR 2-7 DEB

Track METEOR 2-7 DEB now!
10-day predictions


NORAD ID: 28599
Int'l Code: 1981-043H
Perigee: 718.4 km
Apogee: 757.1 km
Inclination: 81.2 °
Period: 99.4 minutes
Semi major axis: 7108 km
RCS: 0.0096 m2 (small)
Launch date: May 14, 1981
Source: Commonwealth of Independent States (former USSR) (CIS)
Launch site: PLESETSK MISSILE AND SPACE COMPLEX (PKMTR)

Note: This is SATELLITE DEBRIS
aabbcc
Your satellite tracking list
Your tracking list is empty




NASA's NSSDC Master Catalog

Two Line Element Set (TLE):
1 28599U 81043H   20098.83055544 +.00001107 +00000-0 +29025-3 0  9992
2 28599 081.2435 246.2195 0027171 229.7783 130.1032 14.48486250315802
Source of the keplerian elements: AFSPC